F8KHU-13 Weather Reports


time (UTC)temp
C
wind
direction
speed
KPH
gust
KPH
rain 1hr
cm
rain 24hr
cm
rain mn
cm
humidity
%
barometer
mb
20260506175538 12 95 0.0 8.0 0.00 0.61 0.43 31 1012.1
20260506175518 12 95 1.6 8.0 0.00 0.61 0.43 31 1012.1
20260506175458 12 96 3.2 8.0 0.00 0.61 0.43 30 1012.1
20260506174038 13 103 1.6 12.9 0.00 0.61 0.43 30 1011.9
20260506174018 13 103 4.8 12.9 0.00 0.61 0.43 30 1012.0
20260506173958 13 103 8.0 12.9 0.00 0.61 0.43 30 1011.9
20260506172538 13 94 8.0 14.5 0.00 0.61 0.43 30 1011.8
20260506172518 13 94 3.2 14.5 0.00 0.61 0.43 30 1011.7
20260506172458 13 94 6.4 14.5 0.00 0.61 0.43 30 1011.8
20260506171038 13 97 11.3 17.7 0.00 0.61 0.43 30 1011.6
20260506171018 13 96 3.2 17.7 0.00 0.61 0.43 30 1011.7
20260506170958 13 97 1.6 17.7 0.00 0.61 0.43 30 1011.7
20260506165533 13 94 11.3 17.7 0.00 0.61 0.43 30 1011.6
20260506165513 14 94 1.6 17.7 0.00 0.61 0.43 30 1011.6
20260506165453 14 93 3.2 17.7 0.00 0.61 0.43 30 1011.6
20260506164033 13 101 6.4 17.7 0.00 0.61 0.43 30 1011.5
20260506164013 13 101 8.0 17.7 0.00 0.61 0.43 30 1011.5
20260506163953 13 102 8.0 17.7 0.00 0.61 0.43 30 1011.5
20260506162534 13 93 6.4 17.7 0.00 0.61 0.43 30 1011.5
20260506162513 13 93 9.7 17.7 0.00 0.61 0.43 30 1011.4
20260506162453 13 93 6.4 17.7 0.00 0.61 0.43 30 1011.3
20260506161033 13 96 6.4 12.9 0.00 0.61 0.43 30 1011.5
20260506161013 13 96 6.4 12.9 0.00 0.61 0.43 30 1011.4
20260506160954 13 96 4.8 12.9 0.00 0.61 0.43 30 1011.5
20260506155534 13 93 11.3 14.5 0.00 0.66 0.43 30 1011.5
20260506155514 13 93 11.3 14.5 0.00 0.66 0.43 30 1011.4
20260506155454 13 93 11.3 14.5 0.00 0.66 0.43 30 1011.5
20260506154034 13 93 12.9 20.9 0.00 0.66 0.43 30 1011.4
20260506154014 13 93 8.0 20.9 0.00 0.66 0.43 30 1011.4
20260506153954 13 93 6.4 20.9 0.00 0.66 0.43 30 1011.5
20260506152534 13 93 12.9 20.9 0.00 0.66 0.43 30 1011.4
20260506152454 13 93 8.0 20.9 0.00 0.66 0.43 30 1011.4
20260506151034 15 93 8.0 12.9 0.00 0.66 0.43 30 1011.5
20260506151014 15 93 9.7 12.9 0.00 0.66 0.43 30 1011.5
20260506150954 15 93 6.4 12.9 0.00 0.66 0.43 30 1011.5
20260506145534 14 87 3.2 11.3 0.00 0.66 0.43 30 1011.4
20260506145514 14 87 4.8 11.3 0.00 0.66 0.43 30 1011.5
20260506145454 14 87 4.8 11.3 0.00 0.66 0.43 30 1011.4
20260506144106 14 90 6.4 11.3 0.00 0.66 0.43 30 1011.4
20260506144034 14 90 6.4 11.3 0.00 0.66 0.43 30 1011.4
20260506144014 14 90 1.6 11.3 0.00 0.66 0.43 30 1011.5
20260506143954 14 90 6.4 11.3 0.00 0.66 0.43 30 1011.4
20260506142535 15 92 6.4 14.5 0.00 0.66 0.43 29 1011.4
20260506142514 15 92 3.2 14.5 0.00 0.66 0.43 30 1011.3
20260506142454 15 92 4.8 14.5 0.00 0.66 0.43 29 1011.3
20260506141035 15 94 6.4 12.9 0.00 0.66 0.43 30 1011.4
20260506140955 15 94 6.4 12.9 0.00 0.66 0.43 30 1011.4
20260506135535 14 93 4.8 14.5 0.00 0.66 0.43 30 1011.6
20260506135515 14 93 6.4 14.5 0.00 0.66 0.43 30 1011.6
20260506135455 14 93 8.0 14.5 0.00 0.66 0.43 30 1011.6
20260506134015 14 100 4.8 11.3 0.00 0.66 0.43 30 1011.4
20260506133955 14 101 4.8 11.3 0.00 0.66 0.43 30 1011.5
20260506132535 13 92 4.8 11.3 0.00 0.66 0.43 31 1011.5
20260506132515 13 93 1.6 11.3 0.00 0.66 0.43 32 1011.5
20260506132455 13 92 1.6 11.3 0.00 0.66 0.43 31 1011.5
20260506131035 12 103 3.2 11.3 0.00 0.66 0.43 32 1011.5
20260506131015 12 103 4.8 11.3 0.00 0.66 0.43 32 1011.5
20260506130955 12 103 3.2 11.3 0.00 0.66 0.43 32 1011.5
20260506125535 13 103 4.8 12.9 0.00 0.66 0.43 31 1011.4
20260506125455 13 104 4.8 12.9 0.00 0.66 0.43 31 1011.4
20260506124035 13 117 3.2 14.5 0.00 0.66 0.43 30 1011.4
20260506124015 13 117 4.8 14.5 0.00 0.66 0.43 30 1011.3
20260506123955 13 117 6.4 14.5 0.00 0.66 0.43 30 1011.3
20260506122536 14 127 4.8 14.5 0.00 0.66 0.43 30 1011.3
20260506122516 14 128 6.4 14.5 0.00 0.66 0.43 30 1011.2
20260506122455 14 129 4.8 14.5 0.00 0.66 0.43 30 1011.2
20260506121036 12 120 1.6 11.3 0.00 0.66 0.43 32 1011.2
20260506121016 12 121 3.2 11.3 0.00 0.66 0.43 32 1011.2
20260506120956 12 121 1.6 11.3 0.00 0.66 0.43 32 1011.3
20260506115516 12 102 1.6 12.9 0.00 0.66 0.43 32 1011.2
20260506115456 12 101 1.6 12.9 0.00 0.66 0.43 32 1011.2
20260506114036 12 105 1.6 17.7 0.00 0.66 0.43 32 1011.0
20260506114016 12 105 8.0 17.7 0.00 0.66 0.43 32 1011.1
20260506113956 12 105 3.2 17.7 0.00 0.66 0.43 32 1011.1
20260506112536 13 120 1.6 14.5 0.00 0.66 0.43 32 1011.0
20260506112516 13 120 4.8 14.5 0.00 0.66 0.43 32 1011.1
20260506112456 13 120 3.2 14.5 0.00 0.66 0.43 32 1011.0
20260506111036 13 122 1.6 17.7 0.00 0.66 0.43 32 1011.0
20260506111016 13 122 1.6 17.7 0.00 0.66 0.43 32 1011.1
20260506110956 13 123 4.8 17.7 0.00 0.66 0.43 32 1011.1
20260506105536 12 138 9.7 12.9 0.00 0.66 0.43 34 1011.1
20260506105516 12 137 3.2 12.9 0.00 0.66 0.43 34 1011.1
20260506105457 12 138 6.4 12.9 0.00 0.66 0.43 34 1011.1
20260506104036 10 135 4.8 14.5 0.00 0.66 0.43 34 1011.0
20260506104017 10 136 3.2 14.5 0.00 0.66 0.43 34 1011.1
20260506103957 10 135 4.8 14.5 0.00 0.66 0.43 34 1011.0
20260506102537 10 123 3.2 11.3 0.00 0.66 0.43 37 1011.0
20260506102517 10 124 1.6 11.3 0.00 0.66 0.43 35 1011.1
20260506102457 10 124 1.6 11.3 0.00 0.66 0.43 36 1011.1
20260506101037 10 124 1.6 12.9 0.00 0.66 0.43 40 1011.0
20260506101017 10 122 1.6 12.9 0.00 0.66 0.43 40 1011.0
20260506100957 10 123 1.6 12.9 0.00 0.66 0.43 40 1011.0
20260506095537 10 114 0.0 14.5 0.00 0.66 0.43 42 1010.8
20260506095517 10 114 0.0 14.5 0.00 0.66 0.43 38 1010.8
20260506095457 10 113 1.6 14.5 0.00 0.66 0.43 38 1010.8
20260506094038 10 118 0.0 14.5 0.00 0.66 0.43 41 1010.7
20260506094017 10 118 3.2 14.5 0.00 0.66 0.43 41 1010.8
20260506093957 10 118 1.6 14.5 0.00 0.66 0.43 41 1010.7
20260506092537 10 116 1.6 14.5 0.00 0.66 0.43 35 1010.6
20260506092457 10 115 1.6 14.5 0.00 0.66 0.43 35 1010.7
20260506091038 10 118 1.6 17.7 0.00 0.66 0.43 35 1010.6
20260506091018 10 119 1.6 17.7 0.00 0.66 0.43 35 1010.6
20260506090958 10 118 3.2 17.7 0.00 0.66 0.43 35 1010.6
20260506085537 10 117 0.0 12.9 0.00 0.66 0.43 35 1010.5
20260506085518 10 117 1.6 12.9 0.00 0.66 0.43 35 1010.5
20260506085458 10 118 3.2 12.9 0.00 0.66 0.43 35 1010.5
20260506084038 9 107 1.6 11.3 0.00 0.66 0.43 35 1010.4
20260506084018 10 107 4.8 11.3 0.00 0.66 0.43 35 1010.4
20260506083958 10 106 1.6 11.3 0.00 0.66 0.43 35 1010.4
20260506082538 10 106 0.0 14.5 0.00 0.66 0.43 35 1010.3
20260506082518 10 106 1.6 14.5 0.00 0.66 0.43 35 1010.3
20260506082458 10 107 6.4 14.5 0.00 0.66 0.43 35 1010.3
20260506081038 10 121 1.6 14.5 0.00 0.66 0.43 35 1010.2
20260506081018 10 120 4.8 14.5 0.00 0.66 0.43 35 1010.1
20260506080958 10 121 1.6 14.5 0.00 0.66 0.43 35 1010.1
20260506072513 9 119 0.0 12.9 0.00 0.66 0.43 35 1009.9
20260506072453 9 120 0.0 12.9 0.00 0.66 0.43 35 1009.9
20260506071034 9 122 1.6 12.9 0.00 0.66 0.43 35 1009.8
20260506071014 9 123 1.6 12.9 0.00 0.66 0.43 35 1009.7
20260506070953 9 122 1.6 12.9 0.00 0.66 0.43 35 1009.8
20260506062514 8 117 1.6 12.9 0.00 0.66 0.43 35 1009.6
20260506062454 8 117 1.6 12.9 0.00 0.66 0.43 35 1009.7
20260506061034 8 114 1.6 12.9 0.00 0.66 0.43 35 1009.6
20260506061014 8 112 0.0 12.9 0.00 0.66 0.43 35 1009.6
20260506060954 8 111 1.6 12.9 0.00 0.66 0.43 35 1009.6
20260506051035 8 113 6.4 12.9 0.05 0.66 0.43 35 1009.6
20260506050955 8 112 4.8 12.9 0.05 0.66 0.43 35 1009.6
20260506044035 9 114 3.2 11.3 0.00 0.61 0.38 35 1009.5
20260506044015 9 114 1.6 11.3 0.00 0.61 0.38 35 1009.5
20260506043955 9 115 0.0 11.3 0.00 0.61 0.38 35 1009.5
20260506042535 9 117 1.6 11.3 0.00 0.61 0.38 35 1009.5
20260506042515 9 118 0.0 11.3 0.00 0.61 0.38 35 1009.4
20260506042455 9 119 0.0 11.3 0.00 0.61 0.38 35 1009.4
20260506041035 9 129 0.0 8.0 0.00 0.61 0.38 35 1009.4
20260506041015 9 128 1.6 8.0 0.00 0.61 0.38 35 1009.4
20260506040955 9 129 1.6 8.0 0.00 0.61 0.38 35 1009.4
20260506035536 9 125 1.6 11.3 0.00 0.61 0.38 35 1009.3
20260506035515 9 125 0.0 11.3 0.00 0.61 0.38 35 1009.3
20260506035455 9 124 0.0 11.3 0.00 0.61 0.38 35 1009.4
20260506034035 9 131 0.0 8.0 0.00 0.61 0.38 35 1009.4
20260506033956 9 129 1.6 8.0 0.00 0.61 0.38 35 1009.4
20260506032536 9 133 1.6 17.7 0.05 0.66 0.38 35 1009.4
20260506032516 9 131 1.6 17.7 0.05 0.66 0.38 35 1009.4
20260506032456 9 132 1.6 17.7 0.05 0.66 0.38 35 1009.3
20260506031036 9 125 4.8 14.5 0.10 0.71 0.38 35 1009.5
20260506031016 9 126 6.4 14.5 0.10 0.71 0.38 35 1009.5
20260506030956 9 126 4.8 11.3 0.10 0.71 0.38 35 1009.5
20260506025536 9 142 0.0 8.0 0.10 0.61 0.38 35 1009.6
20260506025516 9 141 0.0 8.0 0.10 0.61 0.38 35 1009.6
20260506025456 9 142 1.6 8.0 0.10 0.61 0.38 35 1009.5
20260506024036 9 135 1.6 20.9 0.15 0.66 0.38 35 1009.5
20260506024016 9 136 0.0 20.9 0.15 0.66 0.38 35 1009.6
20260506023956 9 135 1.6 20.9 0.15 0.66 0.38 35 1009.5
20260506022536 10 131 6.4 11.3 0.10 0.61 0.33 35 1009.7
20260506022516 9 130 1.6 8.0 0.10 0.61 0.33 35 1009.6
20260506022456 10 130 4.8 8.0 0.10 0.61 0.33 35 1009.7
20260506021036 10 130 3.2 12.9 0.05 0.56 0.28 35 1009.6
20260506021016 10 131 1.6 12.9 0.05 0.56 0.28 35 1009.6
20260506020956 10 132 1.6 12.9 0.05 0.56 0.28 35 1009.7
20260506015516 10 142 1.6 14.5 0.05 0.48 0.28 35 1009.6
20260506015456 10 142 3.2 14.5 0.05 0.48 0.28 35 1009.7
20260506014036 10 129 4.8 12.9 0.05 0.48 0.20 35 1009.6
20260506014017 10 128 6.4 12.9 0.05 0.48 0.20 35 1009.5
20260506013957 10 127 6.4 12.9 0.05 0.48 0.20 35 1009.5
20260506012537 10 140 1.6 11.3 0.10 0.56 0.20 35 1009.6
20260506012517 10 140 0.0 11.3 0.10 0.56 0.20 35 1009.6
20260506012457 10 140 6.4 11.3 0.10 0.56 0.20 35 1009.6
20260506011037 10 132 3.2 12.9 0.10 0.56 0.20 35 1009.7
20260506010957 10 132 1.6 12.9 0.10 0.56 0.20 35 1009.6
20260506005537 10 140 4.8 14.5 0.10 0.43 0.20 35 1009.7
20260506005517 10 140 6.4 14.5 0.10 0.43 0.20 35 1009.7
20260506005457 10 140 4.8 14.5 0.10 0.43 0.20 35 1009.6
20260506004017 10 140 1.6 12.9 0.05 0.38 0.15 34 1009.7
20260506003957 10 141 4.8 12.9 0.05 0.38 0.15 34 1009.7
20260506002537 10 144 1.6 12.9 0.05 0.38 0.10 34 1009.8
20260506002517 10 142 0.0 12.9 0.05 0.38 0.10 34 1009.8
20260506002457 10 142 3.2 12.9 0.05 0.38 0.10 34 1009.8
20260506001037 11 129 0.0 8.0 0.05 0.38 0.10 34 1009.9
20260506000957 11 128 1.6 8.0 0.05 0.38 0.10 34 1009.9
20260505235537 11 135 1.6 11.3 0.10 0.33 0.10 34 1010.0
20260505235517 11 135 0.0 11.3 0.10 0.33 0.10 34 1010.1
20260505235458 11 135 0.0 11.3 0.10 0.33 0.10 34 1010.0
20260505234038 11 130 1.6 11.3 0.15 0.38 0.10 34 1010.1
20260505234018 11 128 0.0 11.3 0.15 0.38 0.10 34 1010.1
20260505233958 11 126 0.0 11.3 0.15 0.38 0.10 34 1010.1
20260505232538 11 139 0.0 8.0 0.15 0.38 0.05 34 1010.2
20260505232518 11 137 0.0 8.0 0.15 0.38 0.05 34 1010.1
20260505232458 11 138 0.0 8.0 0.15 0.38 0.05 34 1010.1
20260505231038 11 134 4.8 8.0 0.15 0.38 0.05 34 1010.2
20260505231018 11 134 1.6 8.0 0.15 0.38 0.05 34 1010.2
20260505230958 11 133 1.6 8.0 0.15 0.38 0.05 34 1010.2
20260505225538 11 140 0.0 8.0 0.10 0.20 0.20 34 1010.3
20260505225518 11 139 1.6 8.0 0.10 0.20 0.20 34 1010.2
20260505225458 11 141 0.0 8.0 0.10 0.20 0.20 34 1010.2
20260505224038 11 142 0.0 6.4 0.05 0.15 0.15 34 1010.3
20260505224018 11 141 0.0 6.4 0.05 0.15 0.15 34 1010.4
20260505223958 11 141 1.6 6.4 0.05 0.15 0.15 34 1010.4
20260505222533 11 130 1.6 8.0 0.00 0.10 0.10 34 1010.3
20260505222513 11 131 0.0 8.0 0.00 0.10 0.10 34 1010.4
20260505222454 11 130 1.6 8.0 0.00 0.10 0.10 34 1010.3
20260505221034 11 143 0.0 8.0 0.00 0.10 0.10 34 1010.3
20260505221014 11 142 0.0 8.0 0.00 0.10 0.10 34 1010.3
20260505220953 11 143 1.6 8.0 0.00 0.10 0.10 34 1010.4
20260505215514 11 128 0.0 6.4 0.00 0.10 0.10 34 1010.4
20260505215454 11 126 0.0 6.4 0.00 0.10 0.10 34 1010.4
20260505214034 11 130 1.6 11.3 0.00 0.10 0.10 34 1010.5
20260505214014 11 129 0.0 11.3 0.00 0.10 0.10 34 1010.5
20260505213954 11 130 1.6 11.3 0.00 0.10 0.10 34 1010.5
20260505212534 11 140 0.0 12.9 0.00 0.10 0.10 34 1010.5
20260505212514 11 141 1.6 12.9 0.00 0.10 0.10 34 1010.5
20260505212454 11 142 0.0 12.9 0.00 0.10 0.10 34 1010.6
20260505211034 11 130 1.6 8.0 0.00 0.10 0.10 34 1010.6
20260505211014 11 131 0.0 8.0 0.00 0.10 0.10 34 1010.6
20260505210954 11 130 0.0 8.0 0.00 0.10 0.10 34 1010.6
20260505205534 11 139 4.8 14.5 0.00 0.10 0.10 34 1010.6
20260505205514 11 138 0.0 14.5 0.00 0.10 0.10 34 1010.6
20260505205454 11 138 1.6 14.5 0.00 0.10 0.10 34 1010.7
20260505204034 11 126 0.0 8.0 0.00 0.10 0.10 34 1010.6
20260505204014 11 127 4.8 8.0 0.00 0.10 0.10 34 1010.6
20260505203955 11 126 0.0 8.0 0.00 0.10 0.10 34 1010.7
20260505202534 11 137 4.8 12.9 0.05 0.15 0.10 34 1010.5
20260505202515 11 137 4.8 12.9 0.05 0.15 0.10 34 1010.6
20260505202455 11 136 4.8 12.9 0.05 0.15 0.10 34 1010.6
20260505201035 11 139 1.6 8.0 0.05 0.15 0.10 34 1010.5
20260505201015 11 138 3.2 8.0 0.05 0.15 0.10 34 1010.5
20260505200955 11 137 1.6 8.0 0.05 0.15 0.10 34 1010.5
20260505195535 11 133 0.0 6.4 0.05 0.10 0.10 34 1010.4
20260505195515 11 132 0.0 6.4 0.05 0.10 0.10 34 1010.4
20260505195455 11 133 0.0 6.4 0.05 0.10 0.10 34 1010.4
20260505194035 11 135 0.0 8.0 0.05 0.10 0.10 34 1010.2
20260505194015 11 137 0.0 8.0 0.05 0.10 0.10 34 1010.3
20260505193955 11 134 0.0 8.0 0.05 0.10 0.10 34 1010.4
20260505192535 11 132 0.0 8.0 0.00 0.05 0.05 34 1010.2
20260505192515 11 132 3.2 8.0 0.00 0.05 0.05 34 1010.2
20260505192455 11 130 1.6 8.0 0.00 0.05 0.05 34 1010.3
20260505191035 11 156 0.0 8.0 0.00 0.05 0.05 34 1010.1
20260505191015 11 159 0.0 8.0 0.00 0.05 0.05 34 1010.1
20260505190955 11 161 0.0 8.0 0.00 0.05 0.05 34 1010.1
20260505185535 11 140 1.6 8.0 0.00 0.05 0.05 34 1010.1
20260505185515 11 139 0.0 8.0 0.00 0.05 0.05 34 1010.1
20260505185455 11 139 6.4 8.0 0.00 0.05 0.05 34 1010.0
20260505184036 11 138 1.6 17.7 0.00 0.05 0.05 34 1010.1
20260505184015 11 139 0.0 17.7 0.00 0.05 0.05 34 1010.0
20260505183956 11 141 1.6 17.7 0.00 0.05 0.05 34 1010.0
20260505182536 12 141 3.2 14.5 0.00 0.05 0.05 34 1010.0
20260505182516 12 141 1.6 14.5 0.00 0.05 0.05 34 1010.0
20260505182456 12 140 1.6 14.5 0.00 0.05 0.05 34 1010.0
20260505181036 12 136 1.6 12.9 0.00 0.05 0.05 34 1010.0
20260505181016 12 134 1.6 12.9 0.00 0.05 0.05 34 1010.1
20260505180955 12 135 6.4 8.0 0.00 0.05 0.05 34 1010.1